AIC625 VABB-VOHS

Flight info

Callsign AIC625
Flight time N/A
Altitude 39000
Route VEVAK2A PPN W28 PONIP NAMSA8
Aircraft A20N/M-SDE2E3FGHIRWXY/LB1

Departure

Time N/A
Airport Chhatrapati Shivaji Maharaj International Airport (VABB)

Arrival

Time 2026-04-29 19:36
Airport Rajiv Gandhi International Airport (VOHS)
Time Latitude Longitude Altitude Speed Heading
2026-04-29 19:08 17.61689 76.66826 29275 ft 434 kts 109°
2026-04-29 19:08 17.60675 76.69973 28077 ft 428 kts 109°
2026-04-29 19:08 17.58976 76.75240 26029 ft 418 kts 109°
2026-04-29 19:09 17.58009 76.78227 24846 ft 412 kts 109°
2026-04-29 19:09 17.57044 76.81207 23648 ft 406 kts 109°
2026-04-29 19:09 17.56173 76.83891 22555 ft 401 kts 109°
2026-04-29 19:09 17.55331 76.86483 21487 ft 397 kts 109°
2026-04-29 19:10 17.54465 76.89149 20375 ft 391 kts 109°
2026-04-29 19:10 17.53773 76.91277 19476 ft 387 kts 109°
2026-04-29 19:10 17.53753 76.91339 19449 ft 387 kts 109°
2026-04-29 19:11 17.53543 76.91982 19176 ft 386 kts 109°
2026-04-29 19:12 17.52802 76.94259 18199 ft 381 kts 109°
2026-04-29 19:12 17.52068 76.96513 17222 ft 377 kts 109°
2026-04-29 19:12 17.51398 76.98571 16319 ft 373 kts 109°
2026-04-29 19:12 17.50877 77.00169 15611 ft 370 kts 109°
2026-04-29 19:13 17.49763 77.03584 14079 ft 364 kts 109°
2026-04-29 19:13 17.49039 77.05804 13068 ft 359 kts 109°
2026-04-29 19:13 17.48243 77.08242 11943 ft 355 kts 109°
2026-04-29 19:13 17.47475 77.10619 10833 ft 350 kts 108°
2026-04-29 19:14 17.46792 77.12750 9827 ft 346 kts 108°
2026-04-29 19:14 17.46052 77.15060 8737 ft 341 kts 108°
2026-04-29 19:14 17.45268 77.17510 7833 ft 328 kts 108°
2026-04-29 19:14 17.44602 77.19591 7302 ft 310 kts 108°
2026-04-29 19:15 17.43971 77.21563 7033 ft 286 kts 108°
2026-04-29 19:15 17.43391 77.23375 6999 ft 258 kts 108°
2026-04-29 19:15 17.42868 77.25008 7000 ft 251 kts 108°
2026-04-29 19:15 17.42387 77.26510 6944 ft 246 kts 108°
2026-04-29 19:16 17.41891 77.28057 6525 ft 244 kts 108°
2026-04-29 19:16 17.41254 77.30048 5786 ft 246 kts 108°
2026-04-29 19:16 17.38124 77.39813 3571 ft 236 kts 108°
2026-04-29 19:16 17.37680 77.41201 4129 ft 234 kts 108°
2026-04-29 19:17 17.37094 77.43029 4665 ft 241 kts 108°
2026-04-29 19:17 17.36584 77.44624 4844 ft 228 kts 108°
2026-04-29 19:17 17.36118 77.46080 4926 ft 219 kts 108°
2026-04-29 19:17 17.35761 77.47194 4959 ft 219 kts 108°
2026-04-29 19:18 17.35314 77.48589 4980 ft 219 kts 108°
2026-04-29 19:18 17.34887 77.49922 4990 ft 219 kts 108°
2026-04-29 19:18 17.34262 77.51873 4997 ft 219 kts 108°
2026-04-29 19:18 17.33908 77.52981 4999 ft 219 kts 108°
2026-04-29 19:19 17.33419 77.54507 5000 ft 219 kts 108°
2026-04-29 19:19 17.32902 77.56119 5000 ft 219 kts 108°
2026-04-29 19:19 17.31258 77.61253 5005 ft 219 kts 108°
2026-04-29 19:19 17.26307 77.76728 4987 ft 219 kts 108°
2026-04-29 19:20 17.25761 77.78449 4995 ft 219 kts 108°
2026-04-29 19:20 17.25359 77.79987 4992 ft 219 kts 97°
2026-04-29 19:20 17.25259 77.81491 4998 ft 219 kts 91°
2026-04-29 19:20 17.25250 77.82713 4999 ft 219 kts 90°
2026-04-29 19:21 17.25262 77.84468 5000 ft 219 kts 89°
2026-04-29 19:21 17.25277 77.86004 5000 ft 219 kts 89°
2026-04-29 19:21 17.25294 77.87578 5000 ft 219 kts 90°
2026-04-29 19:21 17.25274 77.88743 5001 ft 219 kts 92°
2026-04-29 19:22 17.25190 77.90554 5001 ft 219 kts 93°
2026-04-29 19:22 17.25105 77.92117 5001 ft 219 kts 93°
2026-04-29 19:22 17.25018 77.93693 5001 ft 219 kts 93°
2026-04-29 19:22 17.24934 77.95216 5001 ft 219 kts 93°
2026-04-29 19:23 17.24847 77.96771 5001 ft 219 kts 93°
2026-04-29 19:23 17.24779 77.98013 5001 ft 219 kts 93°
2026-04-29 19:23 17.24689 77.99622 5001 ft 219 kts 93°
2026-04-29 19:23 17.24591 78.01402 5001 ft 219 kts 93°
2026-04-29 19:24 17.24513 78.02808 5001 ft 219 kts 93°
2026-04-29 19:24 17.24409 78.04669 5001 ft 219 kts 93°
2026-04-29 19:24 17.24323 78.06220 5001 ft 219 kts 93°
2026-04-29 19:24 17.24236 78.07791 5001 ft 219 kts 93°
2026-04-29 19:25 17.24165 78.09074 5001 ft 219 kts 93°
2026-04-29 19:25 17.24075 78.10689 5001 ft 219 kts 93°
2026-04-29 19:25 17.23993 78.12167 5001 ft 219 kts 93°
2026-04-29 19:25 17.23891 78.14017 5001 ft 219 kts 93°
2026-04-29 19:26 17.23806 78.15546 4913 ft 214 kts 93°
2026-04-29 19:26 17.23722 78.17069 4702 ft 210 kts 93°
2026-04-29 19:26 17.23638 78.18581 4436 ft 209 kts 93°
2026-04-29 19:26 17.23562 78.19953 4182 ft 209 kts 93°
2026-04-29 19:27 17.23492 78.21201 3956 ft 208 kts 95°
2026-04-29 19:27 17.23225 78.22605 3693 ft 207 kts 106°
2026-04-29 19:27 17.22852 78.24144 3404 ft 206 kts 100°
2026-04-29 19:27 17.22684 78.25661 3125 ft 206 kts 92°
2026-04-29 19:28 17.22660 78.27136 2859 ft 205 kts 89°
2026-04-29 19:28 17.22683 78.28520 2610 ft 204 kts 89°
2026-04-29 19:28 17.22711 78.29878 2366 ft 203 kts 89°
2026-04-29 19:28 17.22734 78.31267 2494 ft 179 kts 89°
2026-04-29 19:29 17.22748 78.32428 2579 ft 158 kts 89°
2026-04-29 19:29 17.22758 78.33645 2605 ft 177 kts 89°
2026-04-29 19:29 17.22764 78.34777 2951 ft 198 kts 90°
2026-04-29 19:29 17.22765 78.36507 3251 ft 213 kts 90°
2026-04-29 19:30 17.22761 78.37749 2598 ft 229 kts 90°
2026-04-29 19:30 17.22763 78.38571 2296 ft 227 kts 87°
2026-04-29 19:31 17.22860 78.40128 2202 ft 208 kts 89°
2026-04-29 19:31 17.22872 78.41717 1978 ft 195 kts 83°
2026-04-29 19:31 17.23016 78.43072 2012 ft 169 kts 84°
2026-04-29 19:31 17.22677 78.25427 5019 ft 185 kts 89°
2026-04-29 19:32 17.22690 78.26494 4553 ft 201 kts 89°
2026-04-29 19:32 17.22696 78.27527 4375 ft 194 kts 90°
2026-04-29 19:32 17.22703 78.29055 4234 ft 177 kts 89°
2026-04-29 19:32 17.22713 78.30054 4039 ft 172 kts 89°
2026-04-29 19:33 17.22728 78.31385 3849 ft 157 kts 89°
2026-04-29 19:33 17.22744 78.32555 3595 ft 149 kts 89°
2026-04-29 19:33 17.22758 78.33605 3369 ft 139 kts 89°
2026-04-29 19:33 17.22769 78.34450 3260 ft 143 kts 89°
2026-04-29 19:34 17.22784 78.35605 3072 ft 145 kts 89°
2026-04-29 19:34 17.22796 78.36522 2890 ft 144 kts 89°
2026-04-29 19:34 17.22805 78.37170 2753 ft 140 kts 89°
2026-04-29 19:34 17.22818 78.38182 2570 ft 139 kts 89°
2026-04-29 19:35 17.22831 78.39186 2392 ft 139 kts 89°
2026-04-29 19:35 17.22844 78.40157 2218 ft 138 kts 89°
2026-04-29 19:35 17.22858 78.41053 2063 ft 138 kts 89°
2026-04-29 19:35 17.22872 78.41953 1972 ft 129 kts 89°
2026-04-29 19:36 17.22882 78.42668 1994 ft 48 kts 92°